Location: Branche des Alpilles
(43.6087°N, 4.6976°E)
Time: 16:58:22
(UTC+00:00)

Cosmos 1782 - Pass Details

Date: 30 November 2020
Orbit: 537 x 551 km, 82.5° (Epoch: 23 January)

Event Time Altitude Azimuth Distance (km) Brightness Sun altitude
Rises 18:00:20 0° 204° (SSW) 2,682 6.8 -20.1°
Reaches altitude 10° 18:02:33 10° 211° (SSW) 1,797 6.0 -20.5°
Maximum altitude 18:06:19 41° 283° (WNW) 796 4.0 -21.2°
Drops below altitude 10° 18:10:06 10° 354° (N) 1,820 5.4 -21.9°
Enters shadow 18:10:34 - 356° (N) 1,999 5.6 -22.0°
